Temp
13 13 13 13 12 12 12 12 12 12 11 11 11 11 11 11 11 11 11 11 11 11 11 11 11 11 11 11 11 11 11 11 11 11 11 11 10 10 10 10 10 10 10 10 10 10 10 10 10 10 10 9 9 9 9 9 9 8 8 8 8 8 8 8 8 8 8 8 8
13 13 13 13 12 12 12 12 11 11 11 11 11 11 11 11 11 11 11 11 11 11 11 11 11 11 10 10 10 10 10 10 10 10 10 10 10 10 10 10 10 10 10 10 10 10 10 10 10 10 10 9 9 9 9 9 9 8 8 8 8 8 8 8 8 8 8 8 8
13 13 13 12 12 12 12 11 11 11 11 11 11 11 11 11 11 11 11 11 11 11 11 11 10 10 10 10 10 10 10 10 10 10 10 10 10 10 10 10 10 10 10 10 10 10 10 10 10 10 9 9 9 9 9 9 9 8 8 8 8 8 8 8 8 8 7 7 7
13 12 12 12 12 12 12 11 11 11 11 11 11 11 11 11 11 11 11 11 10 10 10 10 10 10 10 10 10 10 10 10 10 10 10 10 10 10 9 9 9 9 9 9 9 9 9 9 9 9 9 9 9 9 9 9 9 8 8 8 8 8 8 7 7 7 7 7 7
12 12 12 12 12 12 11 11 11 11 11 11 11 11 11 11 11 10 10 10 10 10 10 10 10 10 10 10 10 10 10 10 10 10 9 9 9 9 9 9 9 9 9 9 9 9 9 9 9 9 9 9 9 9 9 9 9 8 8 8 8 8 8 7 7 7 7 7 7
12 12 12 12 12 11 11 11 11 11 11 11 11 11 11 10 10 10 10 10 10 10 10 10 10 10 10 10 10 10 10 10 9 9 9 9 9 9 9 9 9 9 9 9 9 9 8 8 8 8 8 8 8 8 8 8 8 8 8 8 8 8 8 7 7 7 7 7 7
12 12 12 11 11 11 11 11 11 11 11 11 10 10 10 10 10 10 10 10 10 10 10 10 10 10 10 10 10 10 9 9 9 9 9 9 9 9 9 9 8 8 8 8 8 8 8 8 8 8 8 8 8 8 8 8 8 8 8 8 8 8 7 7 7 7 7 7 7
12 12 11 11 11 11 11 11 11 10 10 10 10 10 10 10 10 10 10 10 10 10 10 10 10 10 10 10 9 9 9 9 9 9 9 9 9 8 8 8 8 8 8 8 8 8 8 8 8 8 7 7 7 7 7 8 8 8 8 8 7 7 7 7 7 7 7 7 7
11 11 11 11 11 11 11 10 10 10 10 10 10 10 10 10 10 10 10 10 10 10 10 10 10 10 10 9 9 9 9 9 9 9 9 8 8 8 8 8 8 8 8 8 8 8 8 7 7 7 7 7 7 7 7 7 7 7 7 7 7 7 7 7 7 7 7 7 7
11 11 11 11 11 10 10 10 10 10 10 10 10 10 10 10 10 10 10 10 10 10 10 10 10 9 9 9 9 9 9 9 9 8 8 8 8 8 8 8 8 8 8 8 8 7 7 7 7 7 7 7 7 7 7 7 7 7 7 7 7 7 7 7 7 7 7 7 7
11 11 11 10 10 10 10 10 10 10 10 10 10 10 10 9 9 9 9 9 9 9 9 9 9 9 9 9 9 9 9 8 8 8 8 8 8 8 8 8 8 7 7 7 7 7 7 7 7 7 7 7 7 7 6 6 6 6 6 6 6 6 6 6 6 6 6 6 6
11 10 10 10 10 10 10 10 10 10 10 10 10 9 9 9 9 9 9 9 9 9 9 9 9 9 9 9 8 8 8 8 8 8 8 8 8 7 7 7 7 7 7 7 7 7 7 7 7 7 7 7 6 6 6 6 6 6 6 6 6 6 6 6 6 6 6 6 6
10 10 10 10 10 10 10 10 10 10 10 10 9 9 9 9 9 9 9 9 9 9 9 9 8 8 8 8 8 8 8 8 8 7 7 7 7 7 7 7 7 7 7 7 7 7 7 7 7 7 6 6 6 6 6 6 6 6 5 5 5 5 5 5 5 5 5 5 5
10 10 10 10 10 10 10 10 10 10 9 9 9 9 9 9 9 9 9 8 8 8 8 8 8 8 8 8 8 7 7 7 7 7 7 7 7 7 7 7 7 7 7 7 7 7 7 6 6 6 6 6 6 6 6 6 5 5 5 5 5 5 5 5 5 5 5 5 5
10 10 10 10 10 10 10 10 9 9 9 9 9 9 9 8 8 8 8 8 8 8 8 8 7 7 7 7 7 7 7 7 7 7 7 7 7 7 7 7 7 6 6 6 6 6 6 6 6 6 6 6 6 6 6 5 5 5 5 5 5 5 5 5 5 4 4 4 4
10 10 10 10 10 9 9 9 9 9 9 9 8 8 8 8 8 8 8 8 7 7 7 7 7 7 7 7 7 7 7 7 7 7 6 6 6 6 6 6 6 6 6 6 6 6 6 6 6 6 6 6 6 5 5 5 5 5 5 5 5 5 4 4 4 4 4 4 4
9 9 9 9 9 9 9 9 9 9 8 8 8 8 8 8 8 7 7 7 7 7 7 7 7 7 7 7 7 7 7 6 6 6 6 6 6 6 6 6 6 6 6 6 6 6 6 6 5 5 5 5 5 5 5 5 5 5 5 5 4 4 4 4 4 4 4 3 3
9 9 9 9 9 9 9 8 8 8 8 8 8 8 7 7 7 7 7 7 7 7 7 7 7 7 7 7 6 6 6 6 6 6 6 6 6 6 6 6 6 6 5 5 5 5 5 5 5 5 5 5 5 5 5 5 5 5 4 4 4 4 4 4 4 4 3 3 3
9 9 9 9 9 8 8 8 8 8 8 8 7 7 7 7 7 7 7 7 7 7 7 7 7 6 6 6 6 6 6 6 6 6 6 6 6 6 5 5 5 5 5 5 5 5 5 5 5 5 5 5 5 5 5 5 4 4 4 4 4 4 4 4 4 3 3 3 3
9 8 8 8 8 8 8 8 8 7 7 7 7 7 7 7 7 7 7 7 7 7 6 6 6 6 6 6 6 6 6 6 6 5 5 5 5 5 5 5 5 5 5 5 5 5 5 5 5 5 5 5 5 5 4 4 4 4 4 4 4 4 3 3 3 3 3 3 3
8 8 8 8 8 8 8 7 7 7 7 7 7 7 7 7 7 7 6 6 6 6 6 6 6 6 6 6 6 6 5 5 5 5 5 5 5 5 5 5 5 5 4 4 4 4 5 5 5 5 5 5 5 4 4 4 4 4 4 4 3 3 3 3 3 3 3 3 3
8 8 8 8 8 7 7 7 7 7 7 7 7 7 6 6 6 6 6 6 6 6 6 6 6 6 6 5 5 5 5 5 5 5 5 5 5 5 4 4 4 4 4 4 4 4 4 4 4 4 4 4 4 4 4 4 4 4 4 3 3 3 3 3 3 3 3 3 3
8 8 8 7 7 7 7 7 7 7 7 7 6 6 6 6 6 6 6 6 6 6 6 5 5 5 5 5 5 5 5 5 5 5 5 4 4 4 4 4 4 4 4 4 4 4 4 4 4 4 4 4 4 4 4 4 4 3 3 3 3 3 3 3 3 3 3 3 3
8 8 7 7 7 7 7 7 7 6 6 6 6 6 6 6 6 6 6 6 5 5 5 5 5 5 5 5 5 5 5 4 4 4 4 4 4 4 4 4 4 4 4 4 4 4 4 4 4 4 4 4 4 4 4 4 3 3 3 3 3 3 3 3 3 3 3 3 2
8 7 7 7 7 7 7 6 6 6 6 6 6 6 6 5 5 5 5 5 5 5 5 5 5 5 5 5 4 4 4 4 4 4 4 4 4 4 4 4 4 4 4 4 4 4 4 4 4 4 4 4 4 4 4 3 3 3 3 3 3 3 3 3 3 2 2 2 2
7 7 7 7 7 7 6 6 6 6 6 6 5 5 5 5 5 5 5 5 5 5 5 5 5 5 4 4 4 4 4 4 4 4 4 4 4 4 4 3 3 3 3 3 3 3 3 4 4 4 4 4 4 4 4 3 3 3 3 3 3 3 3 2 2 2 2 2 2
7 7 7 7 7 6 6 6 6 6 5 5 5 5 5 5 5 5 5 5 5 5 5 5 4 4 4 4 4 4 4 4 4 4 3 3 3 3 3 3 3 3 3 3 3 3 3 4 4 4 4 4 4 4 4 3 3 3 3 3 3 3 2 2 2 2 2 2 2
7 7 7 6 6 6 6 6 6 5 5 5 5 5 5 5 5 5 5 5 5 5 4 4 4 4 4 4 4 3 3 3 3 3 3 3 3 3 3 3 3 3 3 3 3 3 3 4 4 4 4 4 4 4 3 3 3 3 3 3 3 3 2 2 2 2 2 2 2
7 7 6 6 6 6 6 6 5 5 5 5 5 5 5 5 5 5 5 5 4 4 4 4 4 4 4 3 3 3 3 3 3 3 3 3 3 3 3 3 3 3 3 3 3 3 3 3 3 3 4 4 3 3 3 3 3 3 3 3 2 2 2 2 2 2 2 1 1
7 6 6 6 6 6 5 5 5 5 5 5 5 5 5 5 5 5 4 4 4 4 4 4 4 3 3 3 3 3 3 3 3 3 3 3 3 3 3 3 3 3 3 3 3 3 3 3 3 3 3 3 3 3 3 3 3 3 2 2 2 2 2 2 2 1 1 1 1
6 6 6 6 6 5 5 5 5 5 5 5 5 5 5 5 5 4 4 4 4 4 4 4 3 3 3 3 3 3 3 3 3 3 3 3 3 3 3 3 3 3 3 3 3 3 3 3 3 3 3 3 3 3 3 3 3 2 2 2 2 2 1 1 1 1 1 1 1
6 6 6 6 5 5 5 5 5 5 5 5 5 5 5 5 4 4 4 4 4 4 3 3 3 3 3 3 3 3 3 3 3 3 3 2 2 2 2 2 2 2 2 2 3 3 3 3 3 3 3 3 3 3 3 3 2 2 2 2 1 1 1 1 1 1 1 0 0
6 6 6 6 5 5 5 5 5 5 5 5 5 5 4 4 4 4 4 4 4 3 3 3 3 3 3 3 3 3 3 3 2 2 2 2 2 2 2 2 2 2 2 2 2 2 3 3 3 3 3 3 3 3 2 2 2 2 2 1 1 1 1 1 1 0 0 1 1
6 6 6 6 6 5 5 5 5 5 5 5 5 5 4 4 4 4 4 4 3 3 3 3 3 3 3 3 3 3 2 2 2 2 2 2 2 2 2 2 2 2 2 2 2 2 2 2 2 2 2 2 2 2 2 2 2 1 1 1 1 1 1 0 0 1 1 1 0
6 6 6 6 6 6 6 6 5 5 5 5 5 4 4 4 4 4 4 3 3 3 3 3 3 3 3 3 3 2 2 2 2 2 2 2 2 2 2 2 2 2 2 2 2 2 2 2 2 2 2 2 2 2 2 2 1 1 1 1 1 0 0 0 0 0 0 0 0
6 6 6 6 6 6 6 5 5 5 5 5 4 4 4 4 4 4 3 3 3 3 3 3 3 3 3 3 2 2 2 2 2 2 2 2 2 2 2 2 2 2 2 2 2 2 2 2 2 2 2 2 2 2 2 1 1 1 1 1 1 0 1 1 0 0 0 0 0
6 6 6 6 6 6 5 5 5 5 5 4 4 4 4 4 3 3 3 3 3 3 3 3 3 3 2 2 2 2 2 2 2 2 2 2 2 2 2 2 2 2 2 2 2 2 2 2 2 2 2 2 2 2 1 1 1 1 1 1 1 1 0 0 0 0 0 0 -0
6 6 6 6 6 5 5 5 5 5 4 4 4 4 4 3 3 3 3 3 3 3 3 3 3 2 2 2 2 2 2 2 2 2 2 2 2 2 2 2 1 1 1 1 1 1 2 2 2 2 2 2 2 2 1 1 1 1 1 0 0 0 0 0 0 0 -0 -0 0
6 6 6 5 5 5 5 5 5 4 4 4 4 4 3 3 3 3 3 3 3 3 3 3 2 2 2 2 2 2 2 2 2 2 2 2 1 1 1 1 1 1 1 1 1 1 1 2 2 2 2 2 2 1 1 1 1 1 0 0 0 0 0 0 0 -0 0 0 1
6 6 5 5 5 5 5 4 4 4 4 4 4 3 3 3 3 3 3 3 3 3 3 2 2 2 2 2 2 2 2 2 2 2 1 1 1 1 1 1 1 1 1 1 1 1 1 2 2 2 2 1 1 1 1 1 1 1 0 0 0 0 0 0 0 0 0 0 1
5 5 5 5 5 4 4 4 4 4 4 4 3 3 3 3 3 3 3 3 3 2 2 2 2 2 2 2 2 2 2 2 1 1 1 1 1 1 1 1 1 1 1 1 1 1 1 1 1 1 1 1 1 1 1 1 1 1 0 0 0 0 -0 -0 -0 0 0 1 1
Height
843 843 842 842 841 841 840 840 840 839 839 838 838 838 837 837 836 836 836 835 835 834 833 833 833 832 832 831 830 830 829 828 828 827 827 826 825 824 823 823 822 821 820 819 818 818 817 816 814 813 812 811 810 808 808 807 806 806 805 804 803 802 802 801 800 799 799 798 798
842 842 842 841 841 840 840 839 839 839 838 838 838 837 837 836 836 835 835 834 834 833 833 832 831 831 830 830 829 829 828 827 827 826 825 824 824 823 822 821 820 820 819 818 817 816 815 814 813 812 810 809 808 807 806 805 804 803 802 801 800 800 799 798 798 797 796 796 795
841 841 841 840 840 840 839 839 839 838 838 838 837 837 836 835 835 834 834 833 833 832 832 831 830 830 829 828 828 828 827 826 825 825 824 823 822 822 821 820 819 818 817 816 815 814 813 813 812 810 809 808 807 805 804 803 802 801 800 799 798 798 797 796 795 794 794 793 793
840 840 840 839 839 839 838 838 838 838 837 837 836 836 835 834 834 833 833 832 832 831 830 830 829 828 828 828 827 826 826 825 824 823 823 822 821 820 819 819 818 817 816 815 814 813 812 811 810 809 808 806 805 804 803 801 801 799 798 797 796 796 795 794 793 793 792 791 790
839 839 839 838 838 838 838 838 837 837 836 836 835 835 834 833 833 832 832 831 830 830 829 829 828 828 827 827 826 825 824 824 823 823 822 821 820 819 818 817 816 815 814 813 813 812 811 810 808 807 806 805 804 802 801 800 799 798 797 795 795 794 793 792 791 790 790 789 788
838 838 838 838 838 837 837 837 836 836 835 835 834 833 833 833 832 832 831 830 830 829 829 828 828 827 826 825 825 824 823 823 822 821 820 819 818 818 817 816 815 814 813 812 811 810 809 808 807 805 804 803 802 801 800 799 798 796 795 794 793 792 791 790 789 788 788 787 786
838 838 837 837 837 837 836 836 835 835 834 834 833 833 832 832 831 831 830 829 829 828 828 827 826 826 825 824 823 823 822 821 820 820 819 818 817 816 815 814 813 812 811 810 809 808 807 807 805 804 803 801 800 799 798 798 796 795 793 792 791 790 790 788 788 787 786 785 784
837 837 837 836 836 836 835 835 834 834 833 833 832 832 831 831 830 829 829 828 828 827 826 826 825 824 823 823 822 821 820 819 819 818 817 816 815 814 813 812 811 810 809 808 808 806 805 804 803 802 801 799 798 797 796 795 795 793 792 790 789 788 788 787 786 785 784 783 782
836 836 836 835 835 835 834 834 833 833 833 832 831 831 830 830 829 828 828 827 827 826 825 824 824 823 822 822 821 820 819 818 817 816 815 814 813 812 811 810 809 808 807 807 806 804 803 802 801 800 798 797 796 794 793 793 792 791 790 789 788 787 786 785 784 783 783 782 780
835 835 835 835 834 834 833 833 833 832 832 831 830 830 829 829 828 828 827 826 825 825 824 823 823 822 821 820 819 818 817 816 815 814 813 813 812 811 809 808 808 806 805 804 803 802 801 800 798 797 796 795 793 792 791 790 790 788 787 786 785 784 783 783 783 782 781 779 778
835 834 834 834 833 833 833 832 832 831 831 830 829 829 828 828 827 827 826 825 824 823 823 822 821 820 819 818 818 817 816 815 814 813 812 811 810 809 808 807 806 804 803 802 801 800 799 798 796 794 793 792 791 790 788 788 787 786 784 783 783 782 781 780 780 779 778 777 776
834 834 833 833 833 832 832 831 831 830 830 829 828 828 828 827 826 826 825 824 823 822 821 821 820 819 818 817 816 815 814 813 812 811 810 809 808 807 806 804 803 802 801 800 799 798 797 795 794 792 791 789 788 788 786 785 784 783 781 780 780 779 778 777 777 777 776 775 774
833 833 833 832 832 832 831 831 830 829 829 828 828 827 826 826 825 824 823 823 822 821 820 819 819 818 817 816 815 813 813 812 810 809 808 807 806 804 803 802 801 800 799 798 797 796 794 793 792 790 788 787 786 785 784 783 781 780 779 778 777 776 775 774 774 773 773 773 772
833 832 832 832 831 831 830 830 829 828 828 827 827 826 825 824 824 823 822 821 820 819 818 818 817 816 815 814 813 812 811 810 808 807 806 805 803 802 801 800 798 798 796 795 794 793 792 791 789 788 786 784 783 782 781 780 779 778 776 775 774 773 772 771 771 771 770 770 769
832 831 831 831 830 830 829 828 828 827 827 826 825 825 824 823 822 822 821 820 819 818 817 816 815 814 813 813 812 810 809 808 807 805 804 802 801 800 799 798 796 795 794 793 792 791 790 788 787 786 784 782 781 779 778 778 776 775 774 773 772 771 769 769 768 768 768 767 766
831 830 830 830 829 828 828 828 827 826 825 825 824 823 822 822 821 820 819 818 817 816 815 814 813 812 811 810 809 808 807 806 804 803 802 800 799 798 797 795 794 793 792 791 789 788 787 786 785 783 782 780 778 777 776 775 773 773 771 770 769 768 767 767 766 766 765 764 763
830 829 829 828 828 828 827 826 825 825 824 823 822 822 821 820 819 818 818 817 816 815 813 813 812 810 809 808 807 806 805 803 802 801 799 798 797 796 794 793 792 791 790 789 787 786 785 783 782 781 780 778 776 775 773 772 771 770 769 768 767 766 765 764 764 763 763 762 761
829 828 828 828 827 826 825 825 824 823 822 822 821 820 819 818 818 817 816 815 814 813 812 810 809 808 808 806 805 804 803 801 800 798 798 796 795 794 793 791 790 789 788 787 785 784 782 781 780 778 777 776 774 773 771 770 768 767 766 765 764 764 763 762 762 761 760 760 758
828 827 827 826 825 825 824 823 823 822 821 820 819 818 818 817 816 815 814 813 813 812 810 809 808 806 805 804 803 802 801 800 798 797 795 794 793 792 791 789 788 787 786 784 783 782 780 779 778 776 775 773 772 770 769 768 766 765 764 763 762 761 761 760 759 759 758 757 756
827 826 825 825 824 823 823 822 821 820 819 819 818 817 816 815 815 814 813 812 811 810 808 807 806 804 803 802 801 800 799 798 797 795 793 793 791 790 788 787 786 785 783 782 781 779 778 777 775 774 773 771 769 768 767 765 764 763 762 761 760 759 758 758 757 756 755 754 753
825 825 824 823 823 822 821 820 820 819 818 817 817 816 815 814 813 812 811 810 809 808 807 805 804 803 801 800 799 798 797 796 795 793 792 790 789 788 787 785 784 783 781 780 778 777 776 774 773 772 770 769 767 766 764 763 762 761 759 758 758 757 756 755 754 753 752 752 751
824 823 823 822 821 820 820 819 818 818 817 816 815 814 813 812 811 810 809 808 807 806 804 803 802 801 800 798 797 796 794 793 793 791 790 788 787 786 784 783 782 780 779 778 777 775 774 773 771 770 768 767 765 763 763 761 760 758 757 756 755 754 753 753 752 751 749 748 748
822 822 821 820 820 819 818 818 817 816 815 814 813 812 811 810 809 808 807 806 805 804 803 802 800 799 798 797 796 794 793 791 790 789 788 787 785 783 783 782 780 779 777 776 775 773 772 770 769 768 766 765 763 761 760 759 758 756 755 753 752 751 750 749 748 748 746 745 745
821 820 820 819 818 818 817 816 815 814 813 813 812 811 810 808 807 806 805 804 803 802 801 800 799 798 796 795 794 793 791 789 788 786 785 784 783 782 781 779 778 777 776 774 773 772 771 769 767 765 764 763 761 759 758 757 756 754 753 751 750 749 748 747 746 745 744 743 742
819 819 818 818 817 816 815 814 813 813 812 811 810 809 808 807 806 805 803 803 801 800 799 798 797 796 794 793 792 791 789 788 786 785 783 782 781 780 779 778 776 775 774 772 771 770 769 768 766 764 762 761 759 758 756 755 754 753 751 750 748 747 745 744 743 743 742 741 740
818 818 817 816 815 814 813 813 812 811 810 809 808 807 806 805 804 803 802 801 800 799 798 797 795 794 793 791 790 789 788 786 785 783 782 780 779 778 777 776 774 773 772 770 769 768 767 766 764 763 761 759 758 756 754 753 752 751 749 748 746 745 743 742 741 740 739 739 738
817 816 815 814 814 813 812 811 810 809 808 807 807 806 804 803 803 802 800 799 798 797 796 795 794 793 791 790 788 787 785 784 783 782 780 779 777 776 774 773 772 771 769 768 767 766 765 763 762 761 759 758 756 754 753 751 749 748 747 746 744 743 742 740 739 738 737 736 735
815 814 813 813 812 811 810 809 808 808 807 806 805 804 803 802 801 800 799 798 797 795 794 793 792 791 789 788 787 785 784 782 781 780 778 777 776 774 773 771 770 769 768 766 765 764 763 761 760 759 758 756 754 753 751 749 748 746 745 743 742 741 739 738 737 736 735 734 733
814 813 812 811 810 809 808 808 807 806 805 804 803 803 802 801 799 798 797 796 795 794 793 791 790 789 788 786 784 783 782 781 779 778 776 775 773 772 771 769 768 767 765 764 763 762 761 759 758 757 756 754 753 751 749 748 746 744 743 741 740 739 738 737 736 735 734 733 732
812 812 811 810 809 808 807 806 805 805 804 803 802 801 800 799 798 797 796 794 793 792 791 790 788 787 785 784 783 781 780 778 777 776 775 773 771 770 769 768 766 764 763 762 761 760 759 758 756 755 753 752 751 749 748 746 744 743 741 739 738 737 736 735 734 733 732 731 730
811 810 809 808 807 806 806 805 804 803 802 802 801 800 798 798 796 795 794 793 792 790 789 788 787 785 783 782 781 779 778 777 775 774 773 771 769 768 767 765 764 762 761 760 759 758 757 755 754 753 752 750 749 747 746 744 742 741 739 738 736 735 734 733 733 732 731 730 729
809 809 808 807 806 805 804 803 803 802 801 800 799 798 797 796 795 794 793 791 790 788 787 786 784 783 781 780 779 778 776 775 773 772 771 769 768 766 764 763 762 760 759 758 757 756 755 753 752 751 749 748 747 745 743 742 740 738 737 736 734 733 733 732 731 730 729 728 727
808 807 807 805 804 803 803 802 801 800 800 799 798 797 796 794 793 792 791 790 788 787 785 784 783 781 779 778 777 775 774 773 772 770 769 768 766 764 763 761 759 758 757 756 755 754 753 752 750 749 748 746 745 743 741 740 738 737 735 733 733 732 731 730 729 728 727 726 725
807 806 805 804 803 802 801 801 800 799 798 797 796 795 794 793 791 790 789 788 787 785 784 783 781 780 778 777 775 773 772 770 769 768 767 765 764 762 761 759 758 756 755 755 754 753 751 750 748 747 746 744 743 741 739 737 736 734 733 732 730 729 729 728 727 725 724 723 721
806 805 804 803 802 801 800 799 799 798 797 796 794 793 793 791 790 789 787 786 785 783 782 780 779 778 776 775 773 772 770 768 767 766 765 763 762 760 758 757 755 754 753 753 752 751 749 748 746 745 743 742 740 738 737 735 733 732 731 729 728 727 726 725 724 723 721 720 719
805 804 803 802 801 800 799 798 797 796 795 794 793 792 790 789 788 787 786 784 783 781 780 778 777 776 774 773 771 770 769 767 765 764 763 762 760 758 756 754 753 752 752 751 750 749 748 746 744 743 742 740 738 736 734 733 731 730 728 727 726 725 724 723 721 720 718 717 716
804 803 802 801 800 799 798 797 796 795 793 792 791 790 789 788 786 785 784 783 781 779 778 777 775 773 772 771 769 768 767 765 764 762 761 760 759 757 755 753 751 750 749 748 748 747 745 744 743 741 739 738 736 734 733 731 729 728 727 725 724 723 722 720 718 717 716 715 714
803 802 801 799 798 797 796 795 794 793 792 791 790 789 788 786 785 783 782 781 780 778 776 774 773 772 770 769 767 766 764 763 762 761 759 758 757 755 753 751 749 748 747 747 746 744 743 742 740 739 738 736 734 732 731 729 727 726 725 723 722 720 719 718 716 715 713 713 713
801 800 799 798 797 796 795 794 793 792 791 789 788 787 786 784 783 782 781 780 778 777 775 773 771 770 768 767 766 764 762 761 760 759 758 756 755 754 752 750 747 746 745 744 743 742 741 740 738 737 736 734 733 731 729 728 726 724 723 721 719 718 716 715 714 713 712 711 711
800 799 798 797 796 795 793 793 791 790 789 788 787 785 784 783 782 780 779 778 777 775 773 772 770 768 767 766 764 762 760 758 758 757 756 754 753 752 750 748 746 744 743 743 741 740 739 738 737 735 734 733 731 729 728 726 724 722 720 719 717 715 713 713 712 711 711 709 709
798 798 797 796 795 793 792 791 790 789 788 787 785 784 783 781 780 779 778 776 775 773 772 770 768 766 765 764 762 760 758 756 755 754 754 753 751 750 748 747 744 742 741 740 739 738 737 736 735 734 733 731 730 728 726 724 722 720 718 716 715 713 712 711 710 710 709 708 706
Wind_Speed
5 6 6 7 9 10 11 12 12 12 12 12 12 12 12 13 13 14 14 14 15 15 15 16 16 17 17 17 17 17 18 19 19 20 21 22 22 22 23 23 24 24 24 24 25 25 26 27 27 28 28 29 29 29 30 30 30 30 31 31 31 31 32 32 32 32 33 33 33
5 5 6 7 8 9 10 10 11 11 11 11 11 12 13 13 14 15 15 15 15 16 16 17 17 18 18 18 18 19 20 21 22 22 23 23 24 24 25 25 25 26 26 26 26 26 27 27 27 28 28 28 29 29 29 30 30 31 31 32 32 32 32 32 32 33 33 33 34
5 6 7 7 8 8 9 9 10 10 10 11 11 12 13 14 15 15 16 16 17 17 18 18 19 19 19 20 20 21 21 22 23 24 24 24 25 25 25 26 26 27 27 27 27 27 27 28 28 28 28 28 28 29 30 30 30 31 31 32 32 32 31 31 31 32 32 32 32
5 6 7 8 9 9 10 10 11 12 12 12 13 14 14 15 16 16 17 17 18 18 18 19 19 20 20 21 22 22 23 23 24 24 25 25 25 26 26 27 27 27 28 28 28 28 28 28 28 28 28 28 29 29 30 30 30 30 31 32 31 31 31 31 31 31 30 31 31
6 7 8 9 10 11 11 12 12 13 13 14 14 15 16 17 17 17 17 17 18 18 19 19 20 21 21 22 22 23 24 24 24 24 25 25 26 26 27 27 27 28 28 28 28 28 28 28 29 28 28 28 28 29 30 30 30 31 31 31 31 30 30 31 31 30 30 30 31
7 8 9 10 10 11 12 12 13 14 14 15 16 17 17 17 17 17 17 18 18 19 20 20 21 22 22 22 23 23 24 24 24 24 25 25 26 27 27 28 28 28 28 29 29 29 29 29 29 29 28 28 28 29 29 29 30 30 31 31 31 30 30 30 31 31 30 31 31
8 9 9 10 10 11 12 13 13 14 15 16 17 17 18 18 18 18 18 19 20 20 21 21 21 22 22 22 23 23 24 24 25 25 25 26 26 27 28 28 28 28 28 29 29 29 29 28 28 29 28 28 28 28 28 28 29 29 30 30 31 31 31 31 31 31 31 31 31
8 8 9 9 10 11 12 13 14 15 16 16 17 18 18 18 18 18 19 19 20 20 21 21 21 21 21 22 22 23 24 24 25 25 25 26 27 27 28 28 28 28 28 29 29 29 29 29 28 28 28 28 28 28 28 28 28 29 29 30 31 31 31 31 31 31 31 31 32
8 8 9 10 11 12 12 13 14 15 16 17 17 18 18 18 18 19 19 19 20 20 20 20 21 21 21 22 22 23 24 24 25 26 26 26 27 27 28 28 28 28 29 29 29 30 29 29 29 29 29 29 29 29 29 29 29 30 30 30 30 30 30 30 30 31 31 32 32
8 9 9 10 11 12 13 14 14 15 16 17 18 18 18 18 18 18 19 19 20 20 20 21 21 21 22 22 23 23 24 25 25 26 26 26 27 27 27 28 28 29 30 30 30 30 30 29 29 30 30 30 30 31 31 31 31 31 31 30 30 30 30 30 30 30 31 31 32
8 9 10 11 12 13 13 14 15 16 17 17 18 18 18 18 18 18 19 19 20 20 21 21 21 22 22 23 23 24 25 25 25 26 26 26 27 27 28 28 29 30 30 31 31 30 30 30 30 31 31 32 32 32 32 32 32 32 32 31 31 31 32 32 31 31 31 31 32
9 10 11 12 12 13 14 14 15 16 16 17 18 18 18 18 18 19 19 20 20 21 22 22 22 22 23 24 24 25 25 25 25 26 26 26 27 28 29 29 30 30 31 31 31 30 30 30 31 32 32 33 33 33 33 33 33 32 32 32 32 31 32 32 32 32 31 31 32
9 10 11 12 12 13 14 14 15 16 16 17 17 18 18 19 19 20 20 21 22 22 23 23 23 23 24 24 25 25 25 26 26 26 27 27 28 29 29 30 30 31 31 31 31 31 31 31 32 33 34 34 34 34 34 34 34 33 33 33 32 32 32 33 33 33 32 32 32
10 10 11 12 12 13 14 14 15 16 16 17 17 18 19 20 20 21 21 22 22 23 23 24 24 24 24 25 25 25 26 26 27 27 28 28 29 29 30 30 31 31 31 31 31 31 31 32 33 34 35 36 36 36 36 35 34 34 34 33 33 33 33 33 33 33 33 33 33
10 11 11 12 12 13 14 14 15 16 17 18 18 19 20 21 21 22 22 22 23 23 24 24 25 25 25 25 26 26 27 27 28 28 29 29 30 30 30 31 31 31 31 32 32 32 33 33 34 35 36 37 38 38 38 37 36 36 35 35 35 35 35 35 35 35 34 34 34
10 11 11 12 13 13 14 15 16 17 18 19 20 20 21 21 22 22 22 23 23 24 24 25 26 26 27 27 27 28 28 29 29 29 30 30 30 31 31 31 31 32 32 33 34 34 34 35 35 36 37 38 39 39 39 38 38 38 38 38 38 37 37 37 36 36 35 34 34
11 11 12 12 13 14 15 16 17 18 19 20 20 21 21 22 22 22 23 23 24 25 25 26 26 27 28 28 29 29 29 29 29 30 30 30 31 31 32 32 32 33 33 34 35 36 36 37 37 37 38 38 39 39 39 39 39 39 39 39 38 38 38 37 36 35 34 34 33
11 12 12 13 14 15 17 18 18 19 20 20 21 21 21 22 22 23 24 24 25 25 26 27 28 28 28 29 30 29 29 30 30 30 31 31 32 32 33 33 34 34 34 35 36 36 37 38 38 38 38 38 38 39 39 39 39 39 39 39 38 38 37 37 37 36 35 34 34
12 13 14 15 16 17 18 19 19 20 20 20 21 22 22 23 23 24 25 25 26 26 27 28 29 29 29 30 30 30 30 30 30 31 31 32 32 33 33 34 34 35 35 36 36 37 38 38 38 38 38 38 38 39 40 40 40 40 39 39 38 38 37 37 37 37 37 36 37
13 14 15 16 17 18 19 19 20 20 21 21 22 23 23 24 24 25 25 26 27 27 28 28 29 30 30 30 31 31 31 30 31 31 32 32 32 33 34 34 35 35 36 36 36 37 37 38 38 38 38 39 39 40 40 41 40 40 40 39 39 38 38 38 38 38 38 38 39
14 15 16 17 18 18 19 20 20 21 22 22 23 24 24 25 25 26 26 27 28 28 28 29 30 30 30 31 31 31 31 31 31 31 32 32 33 34 34 34 35 35 35 35 35 36 37 37 38 38 39 39 40 40 41 41 41 40 40 39 38 38 38 38 38 38 38 39 39
16 17 17 18 19 19 20 20 21 22 23 23 24 25 25 26 26 27 27 28 28 28 29 29 29 30 30 31 31 32 32 32 32 32 32 32 33 33 33 33 33 34 34 35 35 36 36 37 38 38 39 39 40 40 40 40 40 39 39 38 37 37 37 38 38 38 38 39 39
17 18 19 19 20 20 21 22 22 23 24 25 25 25 26 26 27 27 28 28 28 28 29 29 29 29 30 30 31 32 32 32 33 32 32 32 32 33 33 33 33 33 34 34 35 35 36 37 37 38 38 38 39 39 39 38 38 37 37 36 36 37 37 37 38 38 38 38 38
19 19 20 21 21 22 22 23 23 24 25 25 26 26 26 27 27 28 28 28 28 29 29 29 29 30 30 30 31 31 31 32 32 33 32 32 32 32 33 33 33 33 33 34 34 35 35 35 36 37 37 37 37 37 37 37 36 35 35 34 35 35 35 36 36 36 37 36 36
20 21 22 22 23 23 23 24 24 25 25 26 26 26 27 27 27 28 28 28 29 29 29 29 30 30 30 30 30 30 30 31 31 32 32 32 33 33 33 33 32 33 33 34 35 35 34 34 34 35 35 36 37 36 36 34 33 33 33 33 33 33 34 34 34 34 34 34 34
21 22 23 23 24 24 24 24 25 25 26 26 26 26 27 27 27 28 28 29 29 29 29 29 30 29 29 29 29 30 30 30 31 31 32 33 34 34 34 33 32 33 34 35 35 35 34 34 34 34 35 36 37 36 35 34 33 33 33 33 33 33 33 33 34 34 34 34 34
23 23 24 24 24 24 25 25 25 25 26 26 26 26 27 27 28 28 28 29 29 29 29 29 29 29 29 29 29 30 31 31 32 32 33 33 33 34 34 33 33 34 34 35 35 34 33 34 34 34 35 36 37 36 35 34 34 34 33 33 32 32 32 32 32 32 32 32 31
24 24 25 25 25 25 25 25 25 25 26 26 26 27 27 27 28 28 28 29 29 29 29 29 29 29 29 29 30 31 31 32 32 33 33 33 33 33 33 33 33 34 34 34 33 33 34 34 35 35 35 35 35 35 34 33 33 33 32 32 31 31 31 30 30 30 30 29 29
25 25 25 25 25 25 25 25 25 25 26 26 26 27 27 27 27 28 28 29 29 30 30 30 30 30 30 30 31 32 32 32 32 32 32 33 33 33 33 33 33 34 34 34 34 34 34 35 35 35 34 34 34 33 33 32 32 31 31 31 31 30 30 30 29 29 29 29 28
25 25 25 25 25 25 25 25 25 25 26 26 26 26 26 27 27 28 29 29 30 30 31 31 31 31 31 31 32 32 32 32 32 32 32 33 33 33 34 34 34 35 35 34 34 34 34 34 34 34 34 34 34 33 33 32 32 31 31 31 31 30 30 29 29 29 29 28 28
25 25 25 25 25 25 25 25 25 25 25 25 25 26 27 27 28 29 29 30 31 31 31 31 31 31 32 32 32 32 32 32 32 33 33 33 33 34 34 34 34 35 35 34 33 33 33 33 33 34 34 34 34 33 33 33 32 31 31 30 30 30 30 30 30 29 29 29 29
24 24 24 25 25 25 25 25 25 25 25 25 26 26 27 28 29 30 30 31 31 31 31 31 31 31 32 32 32 32 32 32 33 33 33 33 33 34 34 34 35 35 34 33 33 33 33 33 33 34 34 34 34 34 34 33 33 32 31 30 30 30 30 30 29 30 30 30 30
24 24 24 24 25 25 25 25 24 25 25 26 27 27 28 29 30 30 30 30 30 30 30 31 31 31 31 32 32 32 33 32 33 33 33 33 33 34 34 34 34 34 33 32 32 33 33 34 34 34 34 34 34 34 34 33 32 31 31 30 30 30 30 29 29 30 31 31 31
23 23 24 24 24 24 24 24 25 25 26 27 28 28 29 29 30 30 30 30 30 30 30 30 31 31 31 32 32 32 33 33 32 33 33 33 34 34 34 34 34 33 33 33 33 33 34 34 34 34 34 34 34 33 33 32 31 30 30 29 29 29 29 29 30 31 32 33 33
22 23 23 23 24 24 25 25 26 27 27 28 28 29 29 29 29 30 31 31 31 31 31 31 31 31 31 31 31 32 32 33 33 33 33 33 34 34 34 35 35 35 34 34 34 34 34 34 34 34 34 34 33 32 32 31 30 29 28 28 28 28 28 30 31 33 33 33 33
21 22 23 24 25 25 26 27 27 27 28 28 28 29 29 29 30 30 31 31 31 31 31 31 31 31 31 31 31 31 32 32 33 33 33 33 33 34 35 35 36 36 35 34 34 34 34 34 34 34 34 33 32 31 30 29 28 27 27 28 28 28 30 31 32 33 34 34 33
22 23 24 25 26 27 27 27 27 27 28 28 28 29 29 30 30 31 31 30 31 31 31 31 31 31 31 32 32 32 32 32 33 33 33 33 33 34 35 36 36 36 35 34 34 34 34 34 34 33 33 32 31 30 29 28 27 26 27 27 29 30 31 32 32 33 32 31 29
23 24 25 26 26 27 27 27 27 27 28 28 29 29 29 30 30 30 30 30 30 30 31 31 31 31 32 32 33 33 33 33 33 33 33 34 33 34 34 35 36 36 35 35 34 34 34 33 33 32 31 30 30 29 28 27 26 27 28 28 30 31 33 32 31 30 28 25 23
24 25 25 26 26 27 27 27 27 28 28 29 29 29 30 30 30 30 30 29 29 30 30 31 31 32 32 33 33 33 34 34 33 33 33 34 34 34 34 35 36 36 35 35 34 33 33 32 31 30 30 29 29 28 28 27 27 28 29 29 30 31 32 30 28 25 22 21 23
24 25 25 26 26 27 27 27 27 28 28 29 29 29 30 30 30 30 30 29 29 30 30 31 32 33 33 33 33 34 34 35 34 34 34 34 34 34 34 34 35 35 35 34 33 32 31 30 29 29 29 29 29 28 28 28 28 29 29 30 30 29 28 25 22 21 21 24 26
25 25 25 26 26 26 27 27 28 28 28 28 29 29 29 29 29 29 29 30 30 30 31 31 32 33 33 33 33 34 34 35 35 35 34 34 34 33 33 33 34 34 34 33 31 29 28 28 28 28 29 29 29 29 28 28 28 28 29 29 28 25 22 20 21 22 25 26 27
Wind_Direction
312 308 305 304 305 307 310 313 315 316 316 316 314 312 310 307 304 303 302 301 300 300 300 300 301 303 304 305 305 304 302 302 302 302 303 303 302 302 302 301 301 299 298 296 294 292 289 286 283 279 276 273 271 269 268 266 265 263 262 260 259 259 258 257 256 256 255 254 253
302 298 296 296 300 303 308 310 310 310 310 309 306 304 302 302 302 303 304 305 305 305 306 306 307 307 307 307 305 303 302 301 302 302 303 303 302 302 302 301 301 300 300 298 297 295 292 290 286 283 279 276 273 270 268 267 265 264 262 261 260 259 258 257 257 257 256 256 255
298 295 294 295 297 299 300 300 299 298 297 295 295 295 297 299 302 304 306 307 308 308 308 308 308 307 306 305 303 302 300 300 301 301 301 302 302 302 301 301 301 300 300 299 297 296 294 292 290 287 283 280 277 273 271 269 266 264 262 261 260 259 258 258 258 257 257 256 255
298 296 297 297 297 296 294 293 293 292 293 293 295 298 300 303 305 306 307 307 307 306 306 305 305 304 302 301 300 300 300 300 301 301 301 301 300 301 301 301 300 300 299 299 297 296 295 294 292 289 287 284 281 278 274 272 269 266 263 262 261 260 259 258 258 258 257 257 256
296 295 297 299 299 299 298 298 298 298 300 302 304 305 307 307 307 306 305 304 302 302 302 301 300 299 298 298 298 298 299 300 300 300 300 299 300 300 300 300 300 299 299 299 298 297 296 295 293 291 289 287 284 281 278 276 273 269 266 264 262 261 260 259 259 259 258 257 257
295 297 299 301 302 303 303 303 304 305 306 308 308 309 309 309 307 304 301 299 298 298 298 297 297 296 297 297 297 298 298 299 299 299 298 299 299 299 300 300 299 299 299 298 298 297 297 296 294 293 291 289 287 284 282 280 277 274 270 267 265 263 262 261 260 260 259 259 258
300 303 305 306 306 305 306 307 307 308 309 309 309 309 309 308 306 303 300 298 298 297 297 296 296 296 296 297 297 297 297 298 298 298 298 298 298 299 299 299 299 299 298 298 297 297 296 296 294 293 292 290 288 286 285 283 281 278 274 271 269 266 265 263 263 262 261 260 260
309 311 311 309 308 307 307 307 308 308 308 308 308 308 308 307 305 302 300 299 298 298 298 297 297 296 296 296 296 296 296 296 297 297 297 297 297 297 298 298 298 297 297 297 296 296 296 295 293 292 291 289 288 286 285 284 283 281 278 276 274 271 268 267 266 265 264 263 262
315 314 312 308 306 305 305 305 305 304 305 306 306 306 306 305 303 301 300 298 298 298 297 297 296 296 295 295 295 295 294 295 295 295 295 296 296 296 296 296 296 296 296 296 296 295 294 293 292 290 289 288 286 285 285 284 283 281 280 279 278 276 274 271 269 268 267 266 265
313 310 306 303 302 302 301 300 300 300 301 302 303 304 304 302 301 299 299 298 298 297 296 296 295 295 295 294 293 293 293 294 294 294 295 295 295 294 295 295 294 294 295 295 295 294 293 292 290 289 288 286 285 285 284 284 282 280 279 279 278 278 277 275 273 272 270 269 268
306 303 300 299 298 299 298 297 296 297 297 298 300 301 301 300 299 299 299 298 297 296 295 296 296 295 294 294 294 294 294 294 294 294 294 293 293 293 293 293 293 293 293 293 293 293 292 290 289 288 287 287 286 285 284 283 282 280 279 278 277 277 276 276 275 274 273 272 271
300 297 296 296 296 297 296 295 295 296 296 296 297 298 299 299 299 299 299 298 297 296 296 297 297 296 295 295 295 296 296 296 295 294 293 293 292 292 292 292 291 291 291 291 292 291 290 289 288 287 287 287 286 285 284 283 282 281 279 278 277 276 275 275 274 274 274 273 273
295 295 295 296 296 296 296 295 296 296 296 296 297 297 298 298 299 299 299 299 298 298 298 299 298 298 297 297 298 298 298 297 296 294 293 292 292 292 291 291 291 290 290 290 290 289 288 287 287 286 286 286 285 284 283 283 282 280 279 279 278 276 275 274 274 274 273 273 273
295 296 296 297 297 297 297 297 297 297 297 297 297 298 298 298 299 300 300 300 300 300 300 300 300 300 300 300 299 299 298 297 296 294 293 292 292 291 291 290 290 289 289 289 288 288 287 286 286 286 285 285 285 284 284 282 281 280 279 278 277 276 276 275 275 275 274 273 273
297 297 298 298 298 298 298 298 298 298 298 298 299 299 300 301 302 303 303 303 302 302 302 302 302 302 302 301 300 299 299 297 296 294 293 292 291 291 290 290 289 289 288 288 288 287 286 286 285 285 285 284 284 284 284 283 281 280 279 278 277 277 276 276 276 276 275 274 274
298 299 299 300 299 299 299 299 299 300 301 301 302 303 304 304 306 306 306 305 304 304 304 303 303 303 303 302 301 300 299 297 295 294 293 292 292 291 290 290 289 289 288 288 288 287 287 286 286 285 285 285 284 284 284 283 282 281 280 279 278 278 277 278 277 277 276 275 274
299 300 300 300 300 300 301 301 303 304 305 306 307 307 307 307 308 308 307 306 306 305 305 304 304 303 302 302 301 300 298 296 295 293 292 292 291 291 290 290 289 289 289 289 288 288 288 287 287 286 285 285 284 284 284 284 283 282 281 281 280 279 279 279 278 277 276 276 275
300 301 301 302 302 303 304 306 307 309 309 310 310 310 310 310 309 309 309 308 307 306 305 305 304 303 301 300 300 299 297 295 294 293 292 292 291 291 291 290 290 290 290 289 289 288 288 288 288 287 286 285 284 284 284 284 283 283 282 282 281 280 280 280 279 279 278 276 275
301 303 303 304 305 307 309 311 312 313 313 313 313 312 312 312 311 311 310 310 309 307 305 304 303 302 300 299 298 298 296 295 294 293 293 292 292 292 291 291 291 291 290 290 289 289 289 288 288 287 286 285 285 285 284 284 284 284 283 283 282 282 281 281 280 280 279 278 278
304 306 307 308 310 312 313 314 314 314 314 314 314 314 314 314 313 312 311 310 310 308 306 303 302 301 300 299 299 298 297 296 295 294 294 293 293 292 292 292 291 291 291 290 290 289 289 289 288 288 287 287 287 286 286 286 286 285 285 284 284 283 283 283 282 282 281 280 280
308 310 311 313 314 314 315 315 315 315 315 315 315 315 315 315 314 312 311 310 309 308 305 303 302 301 300 300 299 299 298 297 296 295 294 294 293 292 292 292 292 291 291 290 290 290 290 290 289 289 289 289 289 289 289 289 288 288 287 287 286 286 286 285 285 284 283 282 282
313 315 316 316 316 316 315 315 315 315 315 316 316 316 316 315 313 312 311 310 308 306 304 303 302 301 301 300 300 299 299 298 297 295 295 294 293 293 292 292 292 291 291 291 291 291 291 291 291 291 292 292 292 291 291 291 291 290 290 289 289 288 288 288 287 287 286 285 284
317 318 318 318 317 316 316 316 316 316 317 317 317 317 315 314 313 312 311 309 307 305 304 303 302 301 301 301 300 300 300 299 298 297 295 294 294 293 293 293 292 292 292 292 292 292 293 293 293 293 293 293 293 293 293 292 292 292 291 291 290 290 290 289 289 288 288 287 286
318 319 319 318 318 317 317 317 317 317 317 317 317 316 314 313 312 311 310 308 306 305 304 303 302 302 302 302 301 301 300 299 299 298 297 296 295 295 295 294 294 293 293 293 293 293 293 293 294 294 294 294 293 293 293 293 293 292 292 291 291 290 290 289 289 288 288 288 287
318 318 318 318 318 317 317 317 317 317 316 316 315 314 313 312 311 309 308 307 306 305 304 303 303 303 303 303 302 301 300 300 299 299 298 297 297 296 296 295 294 294 293 293 293 292 292 293 293 293 294 294 294 294 294 294 294 293 293 292 291 290 289 289 288 288 288 288 288
318 318 318 318 318 317 317 316 316 316 315 315 314 313 311 311 309 308 307 306 305 305 304 304 304 304 304 303 303 302 301 300 300 299 299 298 298 297 297 296 295 294 294 293 293 293 292 293 293 294 294 295 296 296 296 296 295 295 294 293 292 291 290 289 289 288 288 288 287
318 318 318 318 317 316 315 315 315 314 313 313 311 310 310 309 308 307 306 305 305 305 305 304 304 304 304 304 303 302 301 301 300 299 298 298 298 297 297 296 295 295 295 295 294 294 294 294 295 295 296 296 297 297 297 297 296 296 295 294 293 292 291 290 290 290 290 289 289
318 318 318 317 315 314 314 314 313 311 310 310 309 308 308 307 306 305 305 304 305 305 305 305 305 305 304 304 303 302 301 300 300 299 299 298 298 297 297 296 296 296 296 296 295 295 295 296 296 297 297 297 297 297 297 297 297 296 296 295 294 293 292 291 291 291 292 292 292
318 317 316 314 313 312 311 310 309 308 308 307 307 306 306 305 305 304 304 304 305 305 305 305 305 305 304 303 302 301 301 300 300 300 299 299 298 298 297 297 297 297 296 296 296 296 296 297 297 297 298 298 298 298 298 298 297 297 296 295 295 294 293 293 293 294 294 295 296
317 315 313 311 309 308 307 307 306 306 305 305 305 304 304 304 304 304 305 305 305 305 305 305 304 304 303 301 301 301 301 300 300 300 300 299 299 298 298 298 297 297 297 297 297 297 297 297 298 298 298 299 299 299 299 298 298 298 297 296 295 295 295 295 295 296 296 297 298
313 311 309 307 305 304 303 303 303 303 302 302 302 303 303 304 304 305 305 305 305 304 304 304 303 302 301 301 301 301 301 301 301 301 300 299 299 299 299 298 298 298 298 298 298 298 298 299 299 299 300 300 300 300 299 299 298 298 297 296 296 296 296 296 296 296 297 297 297
309 307 304 302 300 299 300 300 300 300 300 301 302 303 304 304 304 305 305 305 305 305 305 304 303 302 302 302 301 301 301 301 300 300 300 299 299 299 299 299 298 298 298 299 299 299 300 300 300 300 301 301 301 300 299 299 298 297 297 296 296 295 295 295 295 295 295 295 294
304 302 300 298 296 296 297 297 298 299 300 302 303 304 304 305 305 305 305 305 305 305 305 304 303 302 302 302 301 301 301 300 300 300 300 300 299 299 299 299 299 299 299 299 300 300 301 301 301 301 302 302 301 301 300 299 298 297 296 295 294 294 294 293 293 293 292 291 289
301 299 297 295 295 295 296 298 299 301 302 303 304 304 305 305 306 306 306 306 306 305 304 303 302 301 301 300 300 300 300 300 299 299 300 300 300 300 300 299 299 299 299 300 301 301 302 302 302 302 302 302 302 300 299 298 297 296 295 294 293 293 293 292 292 291 289 287 286
301 299 298 297 297 298 299 301 302 303 304 304 305 305 306 306 306 306 306 306 306 305 303 302 301 301 300 299 299 299 299 299 299 299 300 300 300 300 300 299 299 299 300 301 301 302 302 302 302 302 303 302 301 300 299 298 297 296 295 294 294 293 293 293 291 289 287 285 284
303 302 302 302 302 303 303 304 304 304 305 305 305 306 306 306 306 306 306 306 305 304 303 302 302 301 300 300 299 299 299 299 299 300 300 301 301 301 300 300 300 300 301 301 302 302 302 302 303 303 303 302 301 300 299 298 297 296 296 295 294 294 293 291 289 287 286 284 283
306 306 305 305 305 305 305 305 305 305 305 305 306 306 306 307 306 306 306 306 305 304 303 303 302 301 301 300 300 300 300 300 300 300 300 301 301 301 300 300 300 300 301 302 302 302 303 303 303 303 303 302 301 300 300 299 298 297 297 296 295 293 292 290 288 286 284 283 283
307 307 306 306 306 306 306 306 306 306 306 306 306 306 306 306 306 306 306 306 305 304 303 303 302 302 301 301 301 300 300 300 300 300 300 300 300 300 300 300 300 300 301 302 302 302 303 303 303 303 303 303 302 302 302 301 299 298 297 295 293 292 291 289 286 284 283 285 290
307 307 306 306 306 306 306 306 306 306 306 306 306 306 306 306 306 306 306 305 304 304 303 303 302 302 302 302 301 301 301 300 300 300 300 300 300 300 300 300 300 300 301 302 302 302 303 303 303 304 304 304 304 304 303 301 299 297 295 293 291 290 289 287 285 285 288 294 300
307 307 307 306 306 306 307 306 306 306 306 306 306 306 306 306 305 305 305 305 304 304 303 302 302 302 302 302 302 301 301 300 300 300 300 300 300 300 300 299 299 300 301 302 302 303 304 304 305 305 306 305 305 303 301 299 297 295 293 291 290 288 287 287 289 293 298 302 302
306 307 307 306 306 306 306 306 306 306 306 306 306 306 306 306 305 305 305 305 305 304 303 303 302 302 302 302 301 301 300 300 300 300 300 300 300 300 300 300 300 300 301 302 304 305 306 307 307 307 307 306 304 302 300 298 296 294 291 289 288 287 289 293 299 303 304 304 303